Regional Weather Roundup
Issued by NWS

Home | Current Version | Previous Version | Text Only | Print | Product List | Glossary Off
Versions: 1 2 3 4 5 6 7 8 9 10 11 12 13 14 15 16 17 18 19 20 21 22 23 24 25 26 27 28 29 30 31 32 33 34 35 36 37 38 39 40 41 42 43 44 45 46 47 48 49 50

077
ASUS43 KIND 171300
RWRIN

WEATHER ROUNDUP FOR INDIANA
NATIONAL WEATHER SERVICE INDIANAPOLIS IN
900 AM EDT THU AUG 17 2017

NOTE: "FAIR" INDICATES FEW OR NO CLOUDS BELOW 12,000 FEET WITH NO
SIGNIFICANT WEATHER AND/OR OBSTRUCTIONS TO VISIBILITY.

* - STATION DOES NOT REPORT WEATHER SUCH AS PRECIPITATION OR FOG.

+ - STATION NOT QUALITY CONTROLLED BY THE NATIONAL WEATHER SERVICE.
    USE DATA WITH CAUTION...ESPECIALLY DEWPOINT AND RELATIVE
    HUMIDITY OBSERVATIONS.

INZ001>003-010>013-019-020-171400-
NORTHWEST INDIANA

CITY           SKY/WX    TMP DP  RH WIND       PRES   REMARKS
GARY /AIRPORT/ LGT RAIN  73  70  88 S6        29.81S
MICHIGAN CITY+ DRIZZLE   72  68  88 SW12      29.83R
MONTICELLO +   DRIZZLE   73  72  95 W5        29.86R
RENSSELAER +   DRIZZLE   72  66  83 S12       29.86S

$$

LMZ046-743>745-171400-
SOUTHERN LAKE MICHIGAN

STATION/POSITION TIME  TEMP    WIND        PRES    WAVE
                       AIR SEA DIR/SP/G            HT
                 (UTC) (F)     (DEG/KT/KT) (MB)    (FT)
BURNS HARBOR     1240   73     190/ 12/ 18 1010.2R
MICHIGAN CITY    1230   73     180/ 12/ 15   N/A
5NW MICH CITY    1250   74 74  210/ 16/ 19   N/A     2

$$

INZ004-005-014>016-021>024-171400-
NORTH CENTRAL INDIANA

CITY           SKY/WX    TMP DP  RH WIND       PRES   REMARKS
ELKHART        PTSUNNY   73  70  88 S8        29.84S
GOSHEN         CLOUDY    75  70  84 S12       29.86R
PERU/GRISSOM   PTSUNNY   75  75 100 S12       29.86S
SOUTH BEND     CLOUDY    74  71  91 S10       29.84S
WARSAW +       PTSUNNY   73  72  94 SW5       29.87S

$$

INZ006>009-017-018-025>027-171400-
NORTHEAST INDIANA

CITY           SKY/WX    TMP DP  RH WIND       PRES   REMARKS
FORT WAYNE     CLOUDY    75  72  90 S7        29.89R
KENDALLVILLE + CLOUDY    74  73  96 SW9       29.88S

$$

INZ028-029-035-036-043>045-051>053-171400-
WEST CENTRAL INDIANA

CITY           SKY/WX    TMP DP  RH WIND       PRES   REMARKS
LAFAYETTE      LGT RAIN  73  72  96 SW6       29.86R FOG
TERRE HAUTE    CLOUDY    77  73  87 S12G23    29.88R

$$

INZ030>032-037>040-046>048-054>057-064-065-171400-
CENTRAL INDIANA

CITY           SKY/WX    TMP DP  RH WIND       PRES   REMARKS
ANDERSON       CLOUDY    77  73  88 MISG      29.93
COLUMBUS       CLOUDY    75  72  88 S9        29.94R
GREENWOOD *+   CLOUDY    77  73  86 S7        29.93R
INDIANAPOLIS   CLOUDY    77  74  90 S14       29.90S
-EAGLE CREEK   CLOUDY    78  73  84 S9        29.90R
KOKOMO +       PTSUNNY   76  74  93 S14       29.89S
MT COMFORT *+  CLOUDY    75  72  88 S10       29.92S
SHELBYVILLE    CLOUDY    77  72  84 S12       29.92S

$$

INZ033-034-041-042-049-050-058-059-171400-
EAST CENTRAL INDIANA

CITY           SKY/WX    TMP DP  RH WIND       PRES   REMARKS
MUNCIE         PTSUNNY   79  73  82 SW8G17    29.91R
RICHMOND +     SUNNY     73  73 100 SW9       29.96S FOG

$$

INZ060-061-067>069-081>083-085>088-171400-
SOUTHWEST INDIANA

CITY           SKY/WX    TMP DP  RH WIND       PRES   REMARKS
EVANSVILLE     CLOUDY    80  74  81 SW13G20   29.92F
HUNTINGBURG +  MOSUNNY   79  75  87 MISG      29.93F

$$

INZ062-063-066-070>080-084-089>092-171400-
SOUTH CENTRAL AND SOUTHEAST INDIANA

CITY           SKY/WX    TMP DP  RH WIND       PRES   REMARKS
BLOOMINGTON    PTSUNNY   78  73  84 SW9       29.92S
MADISON *+     MOSUNNY   77  73  88 S8        29.99S
SEYMOUR +      SUNNY     79  75  89 S6        29.94S

$$





USA.gov is the U.S. government's official web portal to all federal, state and local government web resources and services.